Regional Weather Roundup
Issued by NWS

Home | Current Version | Previous Version | Graphics & Text | Print | Product List | Glossary On
Versions: 1 2 3 4 5 6 7 8 9 10 11 12 13 14 15 16 17 18 19 20 21 22 23 24 25 26 27 28 29 30 31 32 33 34 35 36 37 38 39 40 41 42 43 44 45 46 47 48 49 50
564
ASUS43 KDTX 282310
RWRMI
MICHIGAN HOURLY REGIONAL WEATHER ROUNDUP
NATIONAL WEATHER SERVICE DETROIT/PONTIAC MI
700 PM EDT TUE MAR 28 2017

NOTE: "FAIR" INDICATES FEW OR NO CLOUDS BELOW 12,000 FEET WITH NO
SIGNIFICANT WEATHER AND/OR OBSTRUCTION TO VISIBILITY.

MIZ047>049-052>055-059>063-066>070-074>076-081>083-290000-
SOUTHEAST LOWER MICHIGAN

CITY           SKY/WX    TMP DP  RH WIND       PRES   REMARKS
ADRIAN         CLOUDY    46  39  76 N10       30.13R
ALMA           SUNNY     51  38  62 E6        30.15R
ANN ARBOR      MOCLDY    46  38  73 NW9       30.12R
BAD AXE        CLEAR     40  32  71 NE7       30.16S
CARO           CLEAR     45  34  67 N5        30.15R
DETROIT CITY   CLEAR     50  37  61 N10       30.12R
DETROIT        PTCLDY    49  37  63 N8        30.13R
FLINT          CLEAR     47  35  63 NE8       30.16R
GROSSE ILE     CLOUDY    49  38  66 N9        30.10R
HILLSDALE      CLOUDY    43  37  81 N5        30.11R
HOWELL         CLEAR     45  34  66 N8        30.14R

CITY           SKY/WX    TMP DP  RH WIND       PRES   REMARKS
JACKSON        CLOUDY    44  36  73 NE8       30.13R
LAMBERTVILLE   CLOUDY    49  40  71 N5        30.12R
LANSING        SUNNY     48  34  58 NE8       30.16R
LAPEER         FAIR      46  34  64 N8G18     30.15R
MASON          SUNNY     46  37  71 NE8       30.14R
MONROE         CLOUDY    48  41  76 N9G16     30.12R
MT. CLEMENS    PTCLDY    46  37  70 N14       30.11R
PONTIAC        PTCLDY    49  35  58 N14       30.11R
PORT HOPE        N/A     38  33  82 N6        30.16R WCI  33
PORT HURON     CLEAR     41  32  70 N12       30.15S
TRI CITIES     CLEAR     45  35  68 E6        30.16R
MIDLAND        FAIR      45  34  67 E8        30.15S
TROY           CLEAR     51  35  53 N7        30.13R
SAGINAW HB     CLEAR     45  32  61 NE6       30.16R
$$
MIZ043>046-050>051-056>058-064>065-071>073-077>080-290000-
SOUTHWEST LOWER MICHIGAN

CITY           SKY/WX    TMP DP  RH WIND       PRES   REMARKS
BATTLE CREEK   CLOUDY    45  38  76 NE8       30.14R
BENTON HARBOR  CLOUDY    41  36  82 VRB6      30.15R
BIG RAPIDS     SUNNY     55  29  37 E5        30.12S
COLDWATER      CLOUDY    46  40  80 N6        30.13R
FREMONT        FAIR      56  33  42 CALM      30.12S
HOLLAND        MOSUNNY   45  38  76 NW8       30.16R
GRAND RAPIDS   MOSUNNY   51  38  60 NE6       30.14R
IONIA          FAIR      48  36  62 NE3       30.14R
KALAMAZOO      CLOUDY    47  37  68 NE5       30.14R
LUDINGTON      SUNNY     43  37  78 N14       30.15S
MARSHALL       CLOUDY    45  38  75 CALM      30.13S
MOUNT PLEASANT SUNNY     54  33  44 CALM      30.13R
MUSKEGON       SUNNY     45  37  73 W7        30.15S
SOUTH HAVEN    CLOUDY    40  37  89 N7        30.16R
$$
MIZ016>042-290000-
NORTHERN LOWER MICHIGAN

CITY           SKY/WX    TMP DP  RH WIND       PRES   REMARKS
ALPENA         CLEAR     49  31  49 N8        30.18R
BEAVER ISLAND  SUNNY     42  33  70 W5        30.19S
BELLAIRE       SUNNY     49  33  54 N6        30.19R
CADILLAC       SUNNY     52  34  49 N9        30.13R
CHARLEVOIX     SUNNY     37  36  94 CALM      30.22F
FRANKFORT      SUNNY     41  33  75 N7        30.18S
GAYLORD        SUNNY     52  25  35 VRB7      30.16R
GRAYLING       SUNNY     52  30  43 N10       30.16R
HARBOR SPRINGS FOG       30  30 100 SW3       30.19F VSB<1/4
HOUGHTON LAKE  SUNNY     54  31  41 N8        30.14R
MANISTEE       SUNNY     43  37  79 NW6       30.16R
OSCODA         CLEAR     44  29  53 NE8       30.16R
PELLSTON       SUNNY     51  29  42 N5        30.18S
ROGERS CITY    CLEAR     48  32  52 NW8       30.18S
TRAVERSE CITY  MOSUNNY   40  34  79 N7        30.19R
$$
MIZ007>008-015-290000-
EASTERN UPPER MICHIGAN

CITY           SKY/WX    TMP DP  RH WIND       PRES   REMARKS
KINROSS        CLEAR     45  27  49 N12       30.18R
MACKINAC ISLAN CLEAR     42  31  64 SW5       30.18S
NEWBERRY       SUNNY     46  32  56 N7        30.18R
S. S. MARIE    CLEAR     46  28  49 NW7       30.18R
MUNISING         N/A     38  31  76 VRB3      30.20R
$$
MIZ004>006-011>014-085-290000-
CENTRAL UPPER MICHIGAN

CITY           SKY/WX    TMP DP  RH WIND       PRES   REMARKS
MANISTIQUE     SUNNY     33  32  97 CALM      30.19S
ESCANABA       MOSUNNY   39  33  79 SE3       30.20R
MENOMINEE        N/A    N/A N/A N/A MISG        N/A
SAWYER-GWINN   SUNNY     45  32  61 NE8       30.19R
$$
MIZ001>003-009>011-084-290000-
WESTERN UPPER MICHIGAN

CITY           SKY/WX    TMP DP  RH WIND       PRES   REMARKS
IRON MOUNTAIN  MOSUNNY   58  27  30 N7        30.14R
HOUGHTON       SUNNY     47  30  51 N6        30.19R
COPPER HARBOR    N/A     38  33  82 CALM      30.21S
IRONWOOD       SUNNY     55  27  34 N6        30.17S
$$

ABBREVIATIONS USED IN REMARKS
   TC - TEMPERATURE IN CELSIUS
  WCI - WIND CHILL INDEX
   HX - HEAT INDEX
  VSB - VISIBILITY





USA.gov is the U.S. government's official web portal to all federal, state and local government web resources and services.